{"data":{"norad_id":58052,"intl_designator":"2023-158B","name":"STARLINK-30575","alt_names":[],"object_type":"PAYLOAD","status":"ACTIVE","operator":null,"country":"US","launch_date":"2023-10-13","launch_site_code":"AFETR","launch_vehicle":null,"mission":null,"orbit_class":"UNKNOWN","rcs_meters":null,"size_class":null,"mass_kg":null,"dimensions":null,"purposes":["comms"],"wikipedia_slug":null,"has_3d_model":false,"image_url":null,"decayed_at":null,"tle_current":{"epoch":"2026-05-25T04:15:48.470112Z","epoch_age_seconds":73907,"freshness":"FRESH","line1":"1 58052U 23158B   26145.17764433 -.00001614  00000+0 -49170-4 0  9990","line2":"2 58052  43.0024 315.4408 0000881 287.0580  73.0175 15.27575610145267","mean_motion":15.2757561,"eccentricity":8.81e-5,"inclination_deg":43.0024,"raan_deg":315.4408,"arg_perigee_deg":287.058,"mean_anomaly_deg":73.0175,"bstar":-4.917e-5,"rev_number":14526,"period_min":94.267019620718,"perigee_km":482.45776965727,"apogee_km":483.66671296359,"semimajor_km":6861.1992413104,"source":"CELESTRAK","updated_at":"2026-05-25T13:38:18.498815Z"}}}